TimeMDT,TemperatureF,Dew PointF,Humidity,Sea Level PressureIn,VisibilityMPH,Wind Direction,Wind SpeedMPH,Gust SpeedMPH,PrecipitationIn,Events,Conditions,WindDirDegrees,DateUTC
12:15 AM,53.6,28.4,38,30.18,10.0,North,3.5,-,N/A,,Clear,10,2013-06-22 06:15:00
12:35 AM,51.8,28.4,41,30.18,10.0,North,5.8,-,N/A,,Clear,360,2013-06-22 06:35:00
12:55 AM,48.2,30.2,50,30.18,10.0,Calm,Calm,-,N/A,,Clear,0,2013-06-22 06:55:00
1:15 AM,48.2,24.8,40,30.18,10.0,North,5.8,-,N/A,,Clear,360,2013-06-22 07:15:00
1:35 AM,48.2,28.4,46,30.19,10.0,North,4.6,-,N/A,,Clear,360,2013-06-22 07:35:00
1:55 AM,46.4,30.2,53,30.19,10.0,North,4.6,-,N/A,,Clear,10,2013-06-22 07:55:00
2:15 AM,46.4,28.4,50,30.19,10.0,North,3.5,-,N/A,,Clear,10,2013-06-22 08:15:00
2:55 AM,44.6,26.6,49,30.19,10.0,ESE,3.5,-,N/A,,Clear,120,2013-06-22 08:55:00
3:15 AM,46.4,28.4,50,30.19,10.0,Calm,Calm,-,N/A,,Clear,0,2013-06-22 09:15:00
3:35 AM,42.8,30.2,61,30.19,10.0,Calm,Calm,-,N/A,,Clear,0,2013-06-22 09:35:00
3:55 AM,42.8,28.4,57,30.20,10.0,Calm,Calm,-,N/A,,Clear,0,2013-06-22 09:55:00
4:15 AM,42.8,26.6,53,30.20,10.0,Calm,Calm,-,N/A,,Clear,0,2013-06-22 10:15:00
4:35 AM,41.0,30.2,65,30.20,10.0,Calm,Calm,-,N/A,,Clear,0,2013-06-22 10:35:00
4:55 AM,39.2,28.4,65,30.21,10.0,Calm,Calm,-,N/A,,Clear,0,2013-06-22 10:55:00
5:15 AM,41.0,26.6,57,30.21,10.0,North,-9999.0,-,N/A,,Clear,0,2013-06-22 11:15:00
5:35 AM,39.2,28.4,65,30.21,10.0,Calm,Calm,-,N/A,,Clear,0,2013-06-22 11:35:00
5:55 AM,37.4,26.6,65,30.22,10.0,Calm,Calm,-,N/A,,Clear,0,2013-06-22 11:55:00
6:15 AM,39.2,26.6,61,30.22,10.0,Calm,Calm,-,N/A,,Clear,0,2013-06-22 12:15:00
6:35 AM,41.0,26.6,57,30.23,10.0,North,-9999.0,-,N/A,,Clear,0,2013-06-22 12:35:00
6:55 AM,42.8,26.6,53,30.23,10.0,Calm,Calm,-,N/A,,Clear,0,2013-06-22 12:55:00
7:15 AM,42.8,28.4,57,30.23,10.0,Calm,Calm,-,N/A,,Clear,0,2013-06-22 13:15:00
7:35 AM,44.6,28.4,53,30.23,10.0,ENE,3.5,-,N/A,,Clear,70,2013-06-22 13:35:00
7:55 AM,46.4,26.6,46,30.23,10.0,Calm,Calm,-,N/A,,Clear,0,2013-06-22 13:55:00
8:15 AM,48.2,24.8,40,30.23,10.0,Calm,Calm,-,N/A,,Clear,0,2013-06-22 14:15:00
8:35 AM,51.8,24.8,35,30.22,10.0,Calm,Calm,-,N/A,,Clear,0,2013-06-22 14:35:00
8:55 AM,53.6,24.8,33,30.22,10.0,Calm,Calm,-,N/A,,Clear,0,2013-06-22 14:55:00
9:15 AM,55.4,26.6,33,30.21,10.0,Calm,Calm,-,N/A,,Clear,0,2013-06-22 15:15:00
9:35 AM,59.0,24.8,27,30.21,10.0,Calm,Calm,-,N/A,,Clear,0,2013-06-22 15:35:00
9:55 AM,60.8,24.8,25,30.19,10.0,South,4.6,-,N/A,,Clear,190,2013-06-22 15:55:00
10:15 AM,62.6,24.8,24,30.19,10.0,WSW,3.5,-,N/A,,Clear,250,2013-06-22 16:15:00
10:35 AM,64.4,26.6,24,30.18,10.0,Calm,Calm,-,N/A,,Clear,0,2013-06-22 16:35:00
10:55 AM,66.2,26.6,23,30.17,10.0,Calm,Calm,-,N/A,,Clear,0,2013-06-22 16:55:00
11:15 AM,69.8,26.6,20,30.17,10.0,WSW,3.5,-,N/A,,Clear,240,2013-06-22 17:15:00
11:35 AM,69.8,26.6,20,30.16,10.0,SW,8.1,-,N/A,,Clear,230,2013-06-22 17:35:00
11:55 AM,73.4,24.8,16,30.16,10.0,WSW,8.1,-,N/A,,Clear,240,2013-06-22 17:55:00
12:15 PM,73.4,24.8,16,30.15,10.0,WSW,8.1,16.1,N/A,,Clear,240,2013-06-22 18:15:00
12:35 PM,73.4,23.0,15,30.15,10.0,WSW,8.1,19.6,N/A,,Clear,250,2013-06-22 18:35:00
12:55 PM,75.2,24.8,15,30.14,10.0,WSW,8.1,20.7,N/A,,Clear,240,2013-06-22 18:55:00
1:35 PM,75.2,21.2,13,30.13,10.0,WSW,16.1,24.2,N/A,,Clear,240,2013-06-22 19:35:00
1:55 PM,77.0,21.2,12,30.12,10.0,West,18.4,26.5,N/A,,Clear,270,2013-06-22 19:55:00
2:15 PM,77.0,21.2,12,30.12,10.0,WNW,18.4,25.3,N/A,,Clear,290,2013-06-22 20:15:00
2:55 PM,78.8,21.2,12,30.10,10.0,WSW,15.0,34.5,N/A,,Clear,240,2013-06-22 20:55:00
3:15 PM,78.8,19.4,11,30.09,10.0,West,18.4,32.2,N/A,,Clear,260,2013-06-22 21:15:00
3:35 PM,78.8,19.4,11,30.09,10.0,West,19.6,29.9,N/A,,Clear,270,2013-06-22 21:35:00
3:55 PM,78.8,19.4,11,30.09,10.0,West,24.2,31.1,N/A,,Clear,280,2013-06-22 21:55:00
4:15 PM,78.8,19.4,11,30.09,10.0,West,23.0,32.2,N/A,,Clear,280,2013-06-22 22:15:00
4:35 PM,77.0,19.4,12,30.09,10.0,West,20.7,29.9,N/A,,Clear,270,2013-06-22 22:35:00
4:55 PM,77.0,19.4,12,30.09,10.0,West,21.9,31.1,N/A,,Clear,270,2013-06-22 22:55:00
5:15 PM,77.0,19.4,12,30.08,10.0,West,16.1,31.1,N/A,,Clear,270,2013-06-22 23:15:00
5:35 PM,77.0,19.4,12,30.08,10.0,West,12.7,29.9,N/A,,Clear,270,2013-06-22 23:35:00
5:55 PM,77.0,17.6,11,30.08,10.0,West,17.3,32.2,N/A,,Clear,280,2013-06-22 23:55:00
6:15 PM,75.2,17.6,11,30.08,10.0,West,24.2,32.2,N/A,,Clear,280,2013-06-23 00:15:00
6:35 PM,75.2,17.6,11,30.09,10.0,West,18.4,33.4,N/A,,Clear,270,2013-06-23 00:35:00
7:15 PM,73.4,15.8,11,30.10,10.0,West,21.9,31.1,N/A,,Clear,280,2013-06-23 01:15:00
7:35 PM,73.4,15.8,11,30.11,10.0,West,16.1,23.0,N/A,,Clear,280,2013-06-23 01:35:00
7:55 PM,71.6,15.8,12,30.11,10.0,West,18.4,21.9,N/A,,Clear,280,2013-06-23 01:55:00
8:15 PM,69.8,14.0,12,30.12,10.0,West,10.4,-,N/A,,Clear,260,2013-06-23 02:15:00
8:35 PM,66.2,15.8,14,30.12,10.0,West,8.1,-,N/A,,Clear,260,2013-06-23 02:35:00
8:55 PM,66.2,17.6,15,30.14,10.0,Calm,Calm,-,N/A,,Clear,0,2013-06-23 02:55:00
9:35 PM,62.6,15.8,16,30.15,10.0,Calm,Calm,-,N/A,,Clear,0,2013-06-23 03:35:00
9:55 PM,60.8,19.4,20,30.16,10.0,Calm,Calm,-,N/A,,Clear,0,2013-06-23 03:55:00
10:15 PM,60.8,17.6,19,30.17,10.0,NE,4.6,-,N/A,,Clear,50,2013-06-23 04:15:00
10:35 PM,57.2,19.4,23,30.18,10.0,North,9.2,-,N/A,,Clear,350,2013-06-23 04:35:00
10:55 PM,55.4,24.8,31,30.17,10.0,SSE,4.6,-,N/A,,Clear,150,2013-06-23 04:55:00
11:15 PM,53.6,26.6,35,30.17,10.0,Calm,Calm,-,N/A,,Clear,0,2013-06-23 05:15:00
11:55 PM,53.6,24.8,33,30.18,10.0,North,6.9,-,N/A,,Clear,360,2013-06-23 05:55:00